Simultaneous Nadir Overpasses (SNOs) Predictions

Prediction of SNOs between NPP and TERRA Satellite Orbit:

Table of predicted SNOs for the next 14.0 days since TLE Epoch: 1/7/2017
Index Date (NPP) Time (NPP) Lat,Lon (NPP) SZA (NPP ) Date (TERRA) Time (TERRA) Lat,Lon (TERRA) SZA (TERRA ) Distance(km) Time Diff (sec)
1 01/08/2017 02:06:07 69.08, 146.22 91.24 01/08/2017 02:07:16 68.94, 147.62 91.06 58.13 69
2 01/08/2017 02:56:37 -68.35, -45.49 89.52 01/08/2017 02:56:55 -68.33, -45.50 89.55 3.17 18
3 01/08/2017 03:47:21 68.23, 121.98 90.35 01/08/2017 03:46:22 68.21, 122.01 90.34 2.10 59
4 01/10/2017 18:22:48 68.43, -97.14 90.19 01/10/2017 18:23:52 68.41, -97.14 90.16 1.85 64
5 01/10/2017 19:13:29 -68.29, 70.36 89.96 01/10/2017 19:13:22 -68.30, 70.36 89.95 1.29 7
6 01/10/2017 20:04:06 67.79,-121.70 89.52 01/10/2017 20:02:55 67.85,-122.52 89.61 35.31 71
7 01/13/2017 10:39:41 68.37, 18.71 89.69 01/13/2017 10:40:20 68.38, 18.70 89.70 1.14 39
8 01/13/2017 11:30:23 -68.29,-173.86 90.40 01/13/2017 11:29:50 -68.27,-173.79 90.42 3.26 33
9 01/16/2017 02:06:02 -69.08, -33.77 90.05 01/16/2017 02:07:11 -69.01, -32.28 90.17 59.90 69
10 01/16/2017 02:56:34 68.31, 134.56 89.15 01/16/2017 02:56:48 68.34, 134.53 89.17 2.68 14
11 01/16/2017 03:47:16 -68.23, -58.02 90.94 01/16/2017 03:46:18 -68.23, -57.96 90.94 2.51 58
12 01/18/2017 18:22:44 -68.44, 82.86 91.25 01/18/2017 18:23:48 -68.46, 82.92 91.24 3.34 64
13 01/18/2017 19:13:27 68.26,-109.60
